TimeEST,TemperatureF,Dew PointF,Humidity,Sea Level PressureIn,VisibilityMPH,Wind Direction,Wind SpeedMPH,Gust SpeedMPH,PrecipitationIn,Events,Conditions,WindDirDegrees,DateUTC
12:54 AM,42.1,30.0,62,30.25,10.0,SSW,5.8,-,N/A,,Overcast,210,2013-01-06 05:54:00
1:54 AM,44.1,32.0,63,30.21,10.0,SW,8.1,-,N/A,,Mostly Cloudy,230,2013-01-06 06:54:00
2:54 AM,44.1,33.1,65,30.22,10.0,WSW,4.6,-,N/A,,Overcast,240,2013-01-06 07:54:00
3:54 AM,42.1,33.1,70,30.19,10.0,WSW,5.8,-,0.00,Rain,Light Rain,240,2013-01-06 08:54:00
4:54 AM,41.0,33.1,73,30.17,10.0,SW,6.9,-,0.02,Rain,Light Rain,220,2013-01-06 09:54:00
5:54 AM,41.0,33.1,73,30.16,10.0,SW,5.8,-,0.00,Rain,Light Rain,220,2013-01-06 10:54:00
7:54 AM,39.9,32.0,73,30.14,10.0,SW,6.9,-,N/A,,Scattered Clouds,220,2013-01-06 12:54:00
8:54 AM,42.1,33.1,70,30.16,10.0,WSW,5.8,-,N/A,,Partly Cloudy,250,2013-01-06 13:54:00
9:54 AM,46.0,34.0,63,30.16,10.0,West,10.4,-,N/A,,Clear,270,2013-01-06 14:54:00
10:54 AM,46.0,33.1,61,30.14,10.0,WNW,11.5,-,N/A,,Clear,300,2013-01-06 15:54:00
11:54 AM,46.9,33.1,59,30.10,10.0,WNW,8.1,-,N/A,,Clear,300,2013-01-06 16:54:00
12:54 PM,50.0,33.8,54,30.08,10.0,Variable,5.8,-,N/A,,Partly Cloudy,0,2013-01-06 17:54:00
1:54 PM,51.1,32.0,48,30.06,10.0,Variable,4.6,-,N/A,,Clear,0,2013-01-06 18:54:00
2:54 PM,50.0,33.1,52,30.05,10.0,South,5.8,-,N/A,,Clear,190,2013-01-06 19:54:00
3:54 PM,48.0,33.1,56,30.05,10.0,SSW,8.1,-,N/A,,Clear,210,2013-01-06 20:54:00
4:54 PM,43.0,32.0,65,30.05,10.0,Calm,Calm,-,N/A,,Clear,0,2013-01-06 21:54:00
5:54 PM,42.1,30.0,62,30.06,10.0,WNW,4.6,-,N/A,,Clear,300,2013-01-06 22:54:00
6:54 PM,37.9,28.9,70,30.07,10.0,Calm,Calm,-,N/A,,Clear,0,2013-01-06 23:54:00
7:54 PM,37.9,30.0,73,30.09,10.0,West,4.6,-,N/A,,Clear,280,2013-01-07 00:54:00
8:54 PM,37.0,28.9,73,30.09,10.0,WNW,5.8,-,N/A,,Clear,290,2013-01-07 01:54:00
10:54 PM,39.2,30.2,70,30.12,10.0,NW,4.6,-,N/A,,Overcast,310,2013-01-07 03:54:00
11:54 PM,39.9,30.9,70,30.13,10.0,NW,5.8,-,N/A,,Overcast,310,2013-01-07 04:54:00